Location: Karcze
(52.0945°N, 22.4786°E)
Time: 02:16:34
(UTC+00:00)

A-11 Canister half - Pass Details

Date: 04 August 2021
Orbit: 1514 x 1685 km, 47.2° (Epoch: 16 September)

Event Time Altitude Azimuth Distance (km) Brightness Sun altitude
Rises 19:51:59 0° 283° (WNW) 4,878 12.6 -12.3°
Reaches altitude 10° 19:55:14 10° 278° (W) 3,908 11.8 -12.6°
Maximum altitude 20:04:37 47° 209° (SSW) 2,133 9.6 -13.5°
Enters shadow 20:12:00 18° 146° (SE) 3,363 10.1 -14.1°
Drops below altitude 10° 20:14:05 10° 141° (SE) 3,943 - -14.3°
Sets 20:17:24 0° 135° (SE) 4,925 - -14.6°
